Le nostre stazioni meteo in Italia

Pubblicità
Il mio iltempo24.it
Matera, Italia (16314): Temperatura & dewpoint: 08.11.2019 09:00:00 - 14.11.2019 09:00:00 (CET)Matera, Italia (16314): velocità del vento: 08.11.2019 09:00:00 - 14.11.2019 09:00:00 (CET)Matera, Italia (16314): direzione del vento: 08.11.2019 09:00:00 - 14.11.2019 09:00:00 (CET)Matera, Italia (16314): reduced air pressure: 08.11.2019 09:00:00 - 14.11.2019 09:00:00 (CET)
Data & Tempo tt [°C] td [°C] ff [km/h] ff [kn] dd ppp [hPa]
14.11.2019 09:00:00 - - - - - -
14.11.2019 08:00:00 11,1 5,6 13 7 O 1011,7
14.11.2019 07:00:00 9,3 4,5 18 10 ONO 1011,5
14.11.2019 06:00:00 9,4 4,1 21 11 O 1011,2
14.11.2019 05:00:00 8,6 3,4 9 5 O 1011,3
14.11.2019 04:00:00 8,7 3,7 22 12 NO 1011,2
14.11.2019 03:00:00 9,3 4,5 16 9 NO 1011,3
14.11.2019 02:00:00 9,1 5,0 22 12 NO 1011,2
14.11.2019 01:00:00 9,7 5,6 26 14 NO 1011,1
14.11.2019 00:00:00 9,7 6,2 26 14 ONO 1011,3
13.11.2019 23:00:00 10,1 6,2 28 15 ONO 1011,1
13.11.2019 22:00:00 10,2 5,9 24 13 ONO 1011,1
13.11.2019 21:00:00 10,6 6,5 28 15 O 1010,8
13.11.2019 20:00:00 10,8 7,1 21 11 ONO 1009,7
13.11.2019 19:00:00 12,4 6,2 28 15 ONO 1008,6
13.11.2019 18:00:00 13,2 7,1 34 18 O 1007,6
13.11.2019 17:00:00 14,7 8,8 22 12 O 1006,9
13.11.2019 16:00:00 15,8 9,4 39 21 O 1005,8
13.11.2019 15:00:00 16,2 10,2 41 22 OSO 1005,0
13.11.2019 14:00:00 15,8 11,1 35 19 OSO 1004,4
13.11.2019 13:00:00 15,4 11,4 41 22 OSO 1003,6
13.11.2019 12:00:00 15,1 11,1 34 18 OSO 1003,6
13.11.2019 11:00:00 14,7 11,6 24 13 OSO 1003,0
13.11.2019 10:00:00 14,5 12,8 34 18 OSO 1001,9
13.11.2019 09:00:00 12,6 12,6 24 13 OSO 1001,6
13.11.2019 08:00:00 12,0 12,0 39 21 SO 1000,6
13.11.2019 07:00:00 11,9 11,7 37 20 OSO 999,1
13.11.2019 06:00:00 13,1 11,6 68 37 SO 997,2
13.11.2019 05:00:00 13,6 13,4 65 35 SO 996,1
13.11.2019 04:00:00 13,3 12,5 59 32 SO 996,1
13.11.2019 03:00:00 13,4 11,9 78 42 SSO 996,0
13.11.2019 02:00:00 13,4 11,6 80 43 SSO 996,9
13.11.2019 01:00:00 13,4 11,6 72 39 SSO 998,0
13.11.2019 00:00:00 13,1 10,6 74 40 SSO 998,8
12.11.2019 23:00:00 13,2 11,1 63 34 SSO 999,8
12.11.2019 22:00:00 12,9 11,5 74 40 SSO 999,9
12.11.2019 21:00:00 12,9 11,5 65 35 SSO 1000,3
12.11.2019 20:00:00 13,5 11,4 81 44 SSO 1000,6
12.11.2019 19:00:00 13,8 11,1 83 45 SSO 1000,7
12.11.2019 18:00:00 13,8 10,0 74 40 SSO 1000,2
12.11.2019 17:00:00 14,0 10,0 78 42 SSO 1000,6
12.11.2019 16:00:00 14,3 9,3 67 36 SSO 1000,5
12.11.2019 15:00:00 15,0 8,9 80 43 SSO 1000,3
12.11.2019 14:00:00 15,5 11,4 83 45 SSO 999,2
12.11.2019 13:00:00 14,7 14,2 80 43 S 998,6
12.11.2019 12:00:00 15,4 14,5 65 35 SSO 999,3
12.11.2019 11:00:00 15,5 15,4 61 33 SSO 998,8
12.11.2019 10:00:00 16,3 16,2 85 46 SSO 996,9
12.11.2019 09:00:00 17,0 16,9 119 64 SSO 996,6
12.11.2019 08:00:00 13,6 13,5 28 15 E 997,5
12.11.2019 07:00:00 13,9 13,8 48 26 S 1000,5
12.11.2019 06:00:00 14,4 14,3 18 10 S 1002,8
12.11.2019 05:00:00 14,4 14,3 54 29 SSO 1003,2
12.11.2019 04:00:00 14,0 13,9 67 36 SSO 1003,9
12.11.2019 03:00:00 13,0 12,9 65 35 SSE 1002,7
12.11.2019 02:00:00 12,3 12,3 54 29 SSE 1006,3
12.11.2019 01:00:00 12,3 12,3 42 23 SSE 1008,1
12.11.2019 00:00:00 12,7 12,7 35 19 SSE 1009,7
11.11.2019 23:00:00 12,8 12,6 37 20 SSE 1010,7
11.11.2019 22:00:00 13,2 12,7 35 19 S 1011,3
11.11.2019 21:00:00 13,2 13,0 37 20 S 1011,2
11.11.2019 20:00:00 12,7 12,4 26 14 SSE 1012,1
11.11.2019 19:00:00 13,0 12,9 26 14 S 1012,5
11.11.2019 18:00:00 12,8 12,8 29 16 S 1012,8
11.11.2019 17:00:00 13,3 12,9 24 13 S 1013,1
11.11.2019 16:00:00 15,1 12,4 34 18 S 1012,9
11.11.2019 15:00:00 - - - - - -
11.11.2019 14:00:00 16,2 11,5 34 18 S 1013,7
11.11.2019 13:00:00 16,1 11,8 35 19 SSO 1014,4
11.11.2019 12:00:00 16,2 11,1 42 23 SSO 1014,9
11.11.2019 11:00:00 15,5 11,2 35 19 SSO 1015,7
11.11.2019 10:00:00 14,4 10,6 26 14 SSO 1016,6
11.11.2019 09:00:00 13,1 11,8 16 9 SSO 1016,5
11.11.2019 08:00:00 11,8 11,3 18 10 S 1016,6
11.11.2019 07:00:00 10,3 9,5 11 6 SSO 1017,1
11.11.2019 06:00:00 10,3 9,2 15 8 SSO 1016,9
11.11.2019 05:00:00 10,6 8,8 15 8 S 1017,0
11.11.2019 04:00:00 11,1 9,3 13 7 S 1016,8
11.11.2019 03:00:00 11,4 10,0 9 5 SSE 1017,0
11.11.2019 02:00:00 11,2 7,8 5 3 S 1017,2
11.11.2019 01:00:00 10,7 7,5 9 5 S 1017,2
11.11.2019 00:00:00 11,0 6,7 13 7 S 1017,1
10.11.2019 23:00:00 11,2 7,1 9 5 S 1016,9
10.11.2019 22:00:00 11,0 7,5 8 4 OSO 1017,0
10.11.2019 21:00:00 10,9 7,4 18 10 OSO 1016,6
10.11.2019 20:00:00 11,8 7,9 8 4 SSO 1016,0
10.11.2019 19:00:00 11,7 8,5 9 5 SO 1015,9
10.11.2019 18:00:00 12,5 8,9 9 5 SSO 1015,3
10.11.2019 17:00:00 13,2 9,2 13 7 SSO 1014,5
10.11.2019 16:00:00 14,2 9,0 24 13 S 1013,6
10.11.2019 15:00:00 14,9 8,8 22 12 SSO 1012,9
10.11.2019 14:00:00 16,4 7,5 15 8 OSO 1012,1
10.11.2019 13:00:00 16,0 7,4 13 7 OSO 1011,9
10.11.2019 12:00:00 15,7 6,9 8 4 O 1011,8
10.11.2019 11:00:00 14,1 7,1 11 6 ONO 1011,9
10.11.2019 10:00:00 12,7 7,5 22 12 O 1011,7
10.11.2019 09:00:00 10,8 7,3 24 13 O 1011,5
10.11.2019 08:00:00 9,5 8,1 16 9 O 1011,8
10.11.2019 07:00:00 8,6 6,7 18 10 O 1011,3
10.11.2019 06:00:00 9,3 7,2 22 12 O 1010,7
10.11.2019 05:00:00 8,6 6,7 28 15 O 1010,8
10.11.2019 04:00:00 8,6 6,9 24 13 OSO 1010,4
10.11.2019 03:00:00 8,4 7,5 21 11 O 1010,2
10.11.2019 02:00:00 8,5 7,4 18 10 O 1010,2
10.11.2019 01:00:00 8,7 7,3 31 17 O 1010,0
10.11.2019 00:00:00 8,9 7,8 18 10 O 1010,6
09.11.2019 23:00:00 9,5 9,3 18 10 ONO 1010,9
09.11.2019 22:00:00 10,9 10,9 29 16 ONO 1011,6
09.11.2019 21:00:00 11,0 11,0 2 1 SSE 1010,6
09.11.2019 20:00:00 11,3 11,3 13 7 NO 1010,8
09.11.2019 19:00:00 11,5 11,5 15 8 OSO 1011,4
09.11.2019 18:00:00 14,0 10,6 18 10 NO 1011,5
09.11.2019 17:00:00 15,9 8,1 16 9 O 1010,6
09.11.2019 16:00:00 17,6 8,9 15 8 O 1010,4
09.11.2019 15:00:00 18,0 9,0 16 9 SO 1010,7
09.11.2019 14:00:00 15,9 12,4 9 5 OSO 1011,9
09.11.2019 13:00:00 17,5 9,6 28 15 SSO 1012,0
09.11.2019 12:00:00 18,3 9,3 31 17 O 1012,4
09.11.2019 11:00:00 16,8 10,4 26 14 OSO 1013,2
09.11.2019 10:00:00 15,3 10,2 24 13 OSO 1013,8
09.11.2019 09:00:00 15,2 11,2 13 7 SO 1013,6
09.11.2019 08:00:00 13,5 11,2 9 5 SO 1013,7
09.11.2019 07:00:00 11,7 9,1 15 8 SSO 1013,5
09.11.2019 06:00:00 12,0 8,8 16 9 SO 1013,6
09.11.2019 05:00:00 12,5 8,9 21 11 OSO 1013,3
09.11.2019 04:00:00 12,4 8,6 22 12 OSO 1013,2
09.11.2019 03:00:00 12,2 7,7 22 12 OSO 1013,3
09.11.2019 02:00:00 11,1 8,8 18 10 SO 1013,6
09.11.2019 01:00:00 11,6 8,8 13 7 SSO 1013,6
09.11.2019 00:00:00 12,1 8,1 18 10 SO 1013,6
08.11.2019 23:00:00 12,6 8,6 21 11 SO 1013,5
08.11.2019 22:00:00 12,8 9,4 8 4 SSO 1013,5
08.11.2019 21:00:00 13,0 9,0 24 13 OSO 1013,7
08.11.2019 20:00:00 12,9 10,2 18 10 SO 1013,1
08.11.2019 19:00:00 13,0 10,3 16 9 O 1012,8
08.11.2019 18:00:00 14,5 10,1 15 8 O 1012,4
08.11.2019 17:00:00 15,5 10,4 29 16 OSO 1011,9
08.11.2019 16:00:00 16,0 10,0 37 20 OSO 1011,7
08.11.2019 15:00:00 16,5 10,1 31 17 SO 1011,2
08.11.2019 14:00:00 17,1 10,2 34 18 SSO 1010,7
08.11.2019 13:00:00 17,1 9,7 37 20 SSO 1011,0
08.11.2019 12:00:00 17,0 9,6 37 20 SO 1011,1
08.11.2019 11:00:00 16,2 8,6 28 15 OSO 1011,3
08.11.2019 10:00:00 15,4 7,6 16 9 SO 1011,5
08.11.2019 09:00:00 13,9 8,0 13 7 OSO 1011,5

tt = Temperatura
td = dewpoint
ff = velocità del vento
dd = direzione del vento
ppp = reduced air pressure

Stazioni seguenti

WeatherPro
AMSI
MeteoEarth